星链-31928 (STARLINK-31928 )

导读

STARLINK-31928是美国太空探索技术公司(SpaceX)于2024年5月28日发射的星链卫星,属于Starlink星座组网卫星。星链计划旨在构建全球卫星互联网系统,为全球偏远地区等提供高速宽带互联网服务,该卫星的发射进一步扩充了星链星座的在轨卫星数量,推进了星座的全球覆盖部署进程。

基本信息
目录编号:
59897
目录名称:
STARLINK-31928
国际标识:
2024-100N
轨道中心:
EARTH
卫星名称:
星链-31928
卫星全名:
星链-31928 (STARLINK-31928 )
卫星状态:
在轨 (已飞行829 天)
发射日期:
2024-05-28 UTC
国别 :
美国 (US)
星等 :
--
轨道信息
数据来源 国际轨道数据 AOE轨道数据
星历时间 2026-09-04T12:41:04+0800
3小时前
查看轨道信息
2026-09-03T23:00:00+0800
17小时前
查看轨道信息
半长轴 6861.175km 6861.179km
偏心率 0.0001286 0.0000928
轨道倾角 43.003° 43.000°
近地点辐角 274.403° 264.437°
升交点赤经 197.584° 200.807°
平近点角 85.667° 196.318°
近地点 482.155km 482.405km
远地点 483.921km 483.679km
周期 94.267分钟 94.267分钟
每日圈数 15.275839 15.275826
详细信息
固有亮度:
5
最大亮度:
1.5
卫星平台:
Starlink v2.0 mini
覆盖范围:
全球
运营商:
太空探索技术公司
运营商所在国:
美国
制造商(研发单位):
太空探索技术公司
制造商所在国:
美国
使用方式:
暂无
卫星简介
星链(Starlink)计划是由太空探索技术公司(SpaceX)提出的一个巨型低轨卫星互联网星座项目,计划在2019年至2024年间在太空搭建由约1.2万颗卫星组成的“星链”网络,其中1584颗将部署在地球上空550千米处的近地轨道,并从2020年开始工作。该卫星仍在工作。
2D轨道图
3D轨道图
轨道高度分析图
轨道倾角分析图
轨道综合分析图
查看轨道综合分析图
交会数据列表
事件ID 空间交会对象 最接近时刻(TCA) 交会距离 交会风险概率(CRP) 交会风险指数(CRI) 操作
CDM_260905-073505-989706-368121
2026-09-05T
07:35:07+0000
0.761 km
远距离
4.245027E-5 中风险 0.68
CDM_260903-205305-989706-409523
2026-09-03T
20:53:22+0000
1.063 km
极远距离
1.996185E-5 中风险 0.61
CDM_260903-222705-989706-409523
2026-09-03T
22:27:36+0000
1.235 km
极远距离
1.17927E-5 中风险 0.56
CDM_260904-233705-989706-685221
2026-09-04T
23:37:29+0000
1.313 km
极远距离
7.938208E-6 低风险 0.53
CDM_260905-011105-989706-685221
2026-09-05T
01:11:38+0000
1.571 km
极远距离
4.391166E-6 低风险 0.48
CDM_260903-191905-989706-409523
2026-09-03T
19:19:09+0000
1.672 km
极远距离
4.333659E-6 低风险 0.48
CDM_260905-013605-773705-989721
2026-09-05T
01:36:25+0000
1.486 km
极远距离
3.937912E-6 低风险 0.47
CDM_260904-000105-989706-409523
2026-09-04T
00:01:49+0000
2.022 km
极远距离
2.548176E-6 低风险 0.43
CDM_260901-084805-718705-989722
OBJECT X (57187)
2026-09-01T
08:48:25+0000
2.279 km
极远距离
1.813741E-6 低风险 0.4
CDM_260903-174405-989706-409523
2026-09-03T
17:44:56+0000
2.535 km
极远距离
1.578846E-6 低风险 0.39